Quakertown, PA

2:35 AM EDT on May 22, 2018 (GMT -0400)
Quakertown

Weather History for KUKT - March, 2013

Change the Weather History Date:

Thursday, March 7, 2013

  Actual Average (KABE) Record (KABE)
Temperature  
Mean Temperature 38 °F -  
Max Temperature 44 °F 44 °F 70 °F (2009)
Min Temperature 33 °F 26 °F 0 °F (2015)
Degree Days  
Heating Degree Days 26    
Moisture  
Dew Point 25 °F    
Average Humidity 58    
Maximum Humidity 70    
Minimum Humidity 46    
Precipitation  
Precipitation 0.00 in - - ()
Sea Level Pressure  
Sea Level Pressure 30.04 in    
Wind  
Wind Speed 12 mph (North)    
Max Wind Speed 16 mph    
Max Gust Speed 28 mph    
Visibility 10 miles    
Events      
Averages and records for this station are not official NWS values.
T = Trace of Precipitation, MM = Missing Value Source: NWS Daily Summary

Daily Weather History Graph

Daily Weather History Graph

Search for Another Location

Airport or City:

Astronomy

Mar. 07, 2013 Rise Set
Actual Time 6:25 AM EST 5:59 PM EST
Civil Twilight 5:58 AM EST 6:27 PM EST
Nautical Twilight 5:26 AM EST 6:58 PM EST
Astronomical Twilight 4:55 AM EST 7:30 PM EST
Moon 3:24 AM EST (3/7) 1:44 PM EST (3/7)
Length of Visible Light 12h 28m
Length of Day
11h 34m
Waning Crescent, 20% of the Moon is Illuminated
Mar 7
Waning Crescent
Mar 11
New
Mar 19
First Quarter
Mar 27
Full
Apr 3
Last Quarter

Hourly Weather History & Observations

Time (EST) Temp. Windchill Dew Point Humidity Pressure Visibility Wind Dir Wind Speed Gust Speed Precip Events Conditions
12:15 AM 37.4 °F 28.2 °F 24.8 °F 60% 29.96 in 10.0 mi NNE 16.1 mph 25.3 mph N/A   Mostly Cloudy
12:35 AM 35.6 °F 25.9 °F 24.8 °F 65% 29.95 in 10.0 mi NNE 16.1 mph 27.6 mph N/A   Mostly Cloudy
12:55 AM 35.6 °F 26.6 °F 24.8 °F 65% 29.95 in 10.0 mi NNE 13.8 mph 26.5 mph N/A   Mostly Cloudy
1:15 AM 35.6 °F 26.6 °F 24.8 °F 65% 29.95 in 10.0 mi NNE 13.8 mph 27.6 mph N/A   Overcast
1:35 AM 35.6 °F 27.5 °F 24.8 °F 65% 29.96 in 10.0 mi NNE 11.5 mph 20.7 mph N/A   Mostly Cloudy
1:55 AM 35.6 °F 27.1 °F 24.8 °F 65% 29.97 in 10.0 mi NNE 12.7 mph 21.9 mph N/A   Mostly Cloudy
2:15 AM 35.6 °F 25.9 °F 24.8 °F 65% 29.97 in 10.0 mi North 16.1 mph 19.6 mph N/A   Mostly Cloudy
2:35 AM 35.6 °F 26.6 °F 24.8 °F 65% 29.97 in 10.0 mi North 13.8 mph 24.2 mph N/A   Scattered Clouds
2:55 AM 35.6 °F 26.6 °F 23.0 °F 60% 29.97 in 10.0 mi North 13.8 mph 23.0 mph N/A   Mostly Cloudy
3:15 AM 35.6 °F 26.6 °F 23.0 °F 60% 29.97 in 10.0 mi North 13.8 mph 20.7 mph N/A   Mostly Cloudy
3:35 AM 35.6 °F 27.5 °F 23.0 °F 60% 29.97 in 10.0 mi NNE 11.5 mph 18.4 mph N/A   Mostly Cloudy
3:55 AM 35.6 °F 29.2 °F 23.0 °F 60% 29.98 in 10.0 mi NNE 8.1 mph 17.3 mph N/A   Overcast
4:15 AM 35.6 °F 28.0 °F 23.0 °F 60% 29.98 in 10.0 mi North 10.4 mph - N/A   Mostly Cloudy
4:35 AM 35.6 °F 28.6 °F 23.0 °F 60% 29.99 in 10.0 mi NNE 9.2 mph 16.1 mph N/A   Scattered Clouds
4:55 AM 35.6 °F 28.6 °F 23.0 °F 60% 29.99 in 10.0 mi NNE 9.2 mph 17.3 mph N/A   Scattered Clouds
5:15 AM 35.6 °F 28.0 °F 23.0 °F 60% 29.99 in 10.0 mi North 10.4 mph 19.6 mph N/A   Scattered Clouds
5:35 AM 35.6 °F 29.2 °F 23.0 °F 60% 29.99 in 10.0 mi North 8.1 mph - N/A   Partly Cloudy
5:55 AM 35.6 °F 28.6 °F 23.0 °F 60% 29.99 in 10.0 mi North 9.2 mph - N/A   Clear
6:15 AM 33.8 °F 27.7 °F 23.0 °F 65% 30.00 in 10.0 mi North 6.9 mph - N/A   Clear
6:35 AM 33.8 °F 28.6 °F 23.0 °F 65% 30.01 in 10.0 mi NNW 5.8 mph - N/A   Mostly Cloudy
6:55 AM 33.8 °F 27.0 °F 23.0 °F 65% 30.01 in 10.0 mi North 8.1 mph - N/A   Mostly Cloudy
7:15 AM 35.6 °F 29.2 °F 23.0 °F 60% 30.02 in 10.0 mi North 8.1 mph - N/A   Mostly Cloudy
7:35 AM 35.6 °F 28.6 °F 23.0 °F 60% 30.02 in 10.0 mi North 9.2 mph - N/A   Overcast
7:55 AM 35.6 °F 28.6 °F 23.0 °F 60% 30.03 in 10.0 mi North 9.2 mph - N/A   Mostly Cloudy
8:15 AM 35.6 °F 27.5 °F 23.0 °F 60% 30.04 in 10.0 mi North 11.5 mph 18.4 mph N/A   Scattered Clouds
8:35 AM 37.4 °F 31.4 °F 23.0 °F 56% 30.04 in 10.0 mi North 8.1 mph - N/A   Overcast
8:55 AM 37.4 °F 30.3 °F 24.8 °F 60% 30.05 in 10.0 mi NNW 10.4 mph 17.3 mph N/A   Overcast
9:15 AM 39.2 °F 31.2 °F 24.8 °F 56% 30.05 in 10.0 mi North 13.8 mph 21.9 mph N/A   Mostly Cloudy
9:35 AM 39.2 °F 32.0 °F 24.8 °F 56% 30.06 in 10.0 mi NNE 11.5 mph 16.1 mph N/A   Mostly Cloudy
9:55 AM 39.2 °F 31.2 °F 24.8 °F 56% 30.06 in 10.0 mi NNW 13.8 mph 20.7 mph N/A   Mostly Cloudy
10:15 AM 39.2 °F 32.0 °F 24.8 °F 56% 30.06 in 10.0 mi North 11.5 mph 18.4 mph N/A   Overcast
10:35 AM 39.2 °F 32.5 °F 24.8 °F 56% 30.06 in 10.0 mi North 10.4 mph 16.1 mph N/A   Overcast
10:55 AM 41.0 °F 33.5 °F 24.8 °F 53% 30.06 in 10.0 mi WNW 13.8 mph 18.4 mph N/A   Overcast
11:15 AM 41.0 °F 33.9 °F 24.8 °F 53% 30.06 in 10.0 mi NW 12.7 mph 17.3 mph N/A   Overcast
11:35 AM 41.0 °F 34.3 °F 24.8 °F 53% 30.05 in 10.0 mi NNW 11.5 mph - N/A   Overcast
11:55 AM 41.0 °F 34.7 °F 24.8 °F 53% 30.05 in 10.0 mi WNW 10.4 mph 16.1 mph N/A   Overcast
12:15 PM 42.8 °F 35.8 °F 24.8 °F 49% 30.05 in 10.0 mi North 13.8 mph 18.4 mph N/A   Overcast
12:35 PM 44.6 °F 39.2 °F 24.8 °F 46% 30.04 in 10.0 mi North 10.4 mph 18.4 mph N/A   Overcast
12:55 PM 44.6 °F 39.2 °F 24.8 °F 46% 30.04 in 10.0 mi North 10.4 mph 17.3 mph N/A   Overcast
1:15 PM 44.6 °F 38.8 °F 24.8 °F 46% 30.03 in 10.0 mi NNW 11.5 mph 19.6 mph N/A   Overcast
1:35 PM 44.6 °F 38.8 °F 24.8 °F 46% 30.03 in 10.0 mi North 11.5 mph 18.4 mph N/A   Overcast
1:55 PM 44.6 °F 39.7 °F 24.8 °F 46% 30.02 in 10.0 mi NNW 9.2 mph - N/A   Overcast
2:15 PM 44.6 °F 38.8 °F 24.8 °F 46% 30.03 in 10.0 mi NW 11.5 mph 18.4 mph N/A   Overcast
2:35 PM 44.6 °F 38.8 °F 24.8 °F 46% 30.03 in 10.0 mi WNW 11.5 mph 18.4 mph N/A   Mostly Cloudy
2:55 PM 44.6 °F 39.2 °F 24.8 °F 46% 30.04 in 10.0 mi NW 10.4 mph 18.4 mph N/A   Overcast
3:15 PM 44.6 °F 38.1 °F 24.8 °F 46% 30.04 in 10.0 mi NNW 13.8 mph 19.6 mph N/A   Mostly Cloudy
3:35 PM 42.8 °F 37.5 °F 24.8 °F 49% 30.05 in 10.0 mi NW 9.2 mph - N/A   Scattered Clouds
3:55 PM 42.8 °F 37.0 °F 24.8 °F 49% 30.05 in 10.0 mi NW 10.4 mph 19.6 mph N/A   Partly Cloudy
4:15 PM 42.8 °F 36.6 °F 24.8 °F 49% 30.06 in 10.0 mi NW 11.5 mph 19.6 mph N/A   Scattered Clouds
4:35 PM 41.0 °F 34.3 °F 24.8 °F 53% 30.06 in 10.0 mi NNW 11.5 mph 16.1 mph N/A   Scattered Clouds
4:55 PM 41.0 °F 34.3 °F 24.8 °F 53% 30.07 in 10.0 mi North 11.5 mph 20.7 mph N/A   Partly Cloudy
5:15 PM 41.0 °F 33.9 °F 24.8 °F 53% 30.07 in 10.0 mi North 12.7 mph 18.4 mph N/A   Partly Cloudy
5:35 PM 41.0 °F 35.2 °F 24.8 °F 53% 30.08 in 10.0 mi NNW 9.2 mph 18.4 mph N/A   Mostly Cloudy
5:55 PM 39.2 °F 32.5 °F 24.8 °F 56% 30.09 in 10.0 mi NW 10.4 mph 16.1 mph N/A   Scattered Clouds
6:15 PM 39.2 °F 34.2 °F 26.6 °F 61% 30.09 in 10.0 mi NNE 6.9 mph - N/A   Mostly Cloudy
6:35 PM 39.2 °F 31.6 °F 24.8 °F 56% 30.10 in 10.0 mi NW 12.7 mph 16.1 mph N/A   Mostly Cloudy
6:55 PM 39.2 °F 32.5 °F 24.8 °F 56% 30.10 in 10.0 mi North 10.4 mph 17.3 mph N/A   Mostly Cloudy
8:35 PM 37.4 °F 30.8 °F 26.6 °F 65% 30.10 in 10.0 mi North 9.2 mph 18.4 mph N/A   Scattered Clouds
8:55 PM 35.6 °F 28.0 °F 26.6 °F 70% 30.10 in 10.0 mi North 10.4 mph 16.1 mph N/A   Mostly Cloudy
9:15 PM 35.6 °F 29.2 °F 26.6 °F 70% 30.10 in 10.0 mi NNE 8.1 mph - N/A   Mostly Cloudy
9:35 PM 35.6 °F 28.6 °F 26.6 °F 70% 30.09 in 10.0 mi North 9.2 mph - N/A   Scattered Clouds
9:55 PM 35.6 °F 29.2 °F 26.6 °F 70% 30.09 in 10.0 mi NNE 8.1 mph 16.1 mph N/A   Mostly Cloudy
10:15 PM 35.6 °F 26.6 °F 26.6 °F 70% 30.09 in 7.0 mi NNW 13.8 mph 18.4 mph N/A   Overcast
10:35 PM 35.6 °F 28.0 °F 24.8 °F 65% 30.09 in 10.0 mi NNW 10.4 mph 17.3 mph N/A   Overcast
10:55 PM 35.6 °F 27.5 °F 24.8 °F 65% 30.09 in 10.0 mi NNW 11.5 mph 20.7 mph N/A   Overcast
11:15 PM 35.6 °F 26.6 °F 24.8 °F 65% 30.09 in 10.0 mi NW 13.8 mph 21.9 mph N/A   Overcast
11:35 PM 35.6 °F 30.7 °F 24.8 °F 65% 30.09 in 10.0 mi NW 5.8 mph - N/A   Overcast
11:55 PM 35.6 °F 27.5 °F 24.8 °F 65% 30.09 in 10.0 mi North 11.5 mph 18.4 mph N/A   Scattered Clouds